FENGYUN 1C DEB

Satellite information

Favourite Embed

Satellite Type and Status

DEBRISIN ORBIT

Key statistics

Satellite FENGYUN 1C DEB at a glance.

Uptime

9665

Days in orbit

Revolutions

≈ 14.2

Per day

Orbit

SSO

Sun Synchronous Orbit

Inclination

98.2

Latest

Satellite identification and parameters

Extended collection of information and parameters for FENGYUN 1C DEB.

Object identification

Identified? True

Debris? True

Object name: FENGYUN 1C DEB

International designator: 1999-025EZG

Object number (NORAD): 46451

Object ID (CCSDS): 46451

Country: PEOPLES REPUBLIC OF CHINA (PRC)

Current information (Y/N): Y

RCS size: SMALL

Orbital parameters

Period: 101.452 minutes

Inclination: 98.1583 deg

SMA: 7205.532 km

Apoapsis: 950.755 km

Periapsis: 704.039 km

RAAN: 318.7319 deg

Eccentricy: 0.01711992

Argument of periapsis: 336.1529 deg

Mean anomaly: 178.2086 deg

Mean motion: 14.193963 rev/day

Mean motion (dot): 0.00008418 rev/day2

B* drag term: 0.0034719721 1/REarth

Two-line elements (TLE)

Creation date: Oct. 23, 2025, 2:46 a.m.

Reference frame: TEME

Reference center: EARTH

Epoch: Oct. 22, 2025, 1:17 p.m. UTC

TLE line 0: 0 FENGYUN 1C DEB

TLE line 1: 1 46451U 99025EZG 25295.55411554 .00008418 00000-0 34720-2 0 9997

TLE line 2: 2 46451 98.1583 318.7319 0171199 336.1529 178.2086 14.19396300562804

Live tracking on map

Real-time ground track for satellite FENGYUN 1C DEB.

In-orbit conjunctions

A list of the most updated potential collisions computed for object FENGYUN 1C DEB.

Target Orbit TCA Probability of collision Miss distance Type
COSMOS 858 LEO 2025-07-25 10:14:58 0.0002227824 802.0 (m) PAYLOAD
SL-8 R/B LEO 2024-11-25 19:34:24 0.0001675035 190.0 (m) ROCKET BODY
FENGYUN 1C DEB SSO 2024-11-14 23:39:45 0.0002801681 234.0 (m) DEBRIS

Associated space launch

Chinese polar orbiting meteorological satellite

FENGYUN 1C DEB was lifted into orbit during the mission ‘Long March 4B | Feng Yun 1C’, on board a Long March 4B space rocket.

The launch took place on May 10, 1999, 1:33 a.m. from Launch Complex 7.

For more information about the launch, click the button.

Launch to space Long March 4B | Feng Yun 1C
Long March 4B | Feng Yun 1C

Agency: N/A

Status: Launch Successful

Launch date: May 10, 1999, 1:33 a.m. UTC

Rocket: Long March 4B

Launch pad: Launch Complex 7

Location: Taiyuan Satellite Launch Center, People's Republic of China

...

Latest news about this satellite

There are no fresh news available about this satellite. Check back as we update our databases every day.


Newsletter sign-up

Weekly statistics, charts and insights to help you stay on top of the space industry.